Location: Ajisawe
(8.4333°N, 4.3833°E)
Time: 21:56:52
(UTC+00:00)

Vanguard 2 Rocket - Pass Details

Date: 21 April 2021
Orbit: 554 x 3326 km, 32.9° (Epoch: 16 May)

Event Time Altitude Azimuth Distance (km) Brightness Sun altitude
Rises 18:12:51 0° 307° (NW) 7,245 12.9 -5.9°
Reaches altitude 10° 18:18:25 10° 312° (NW) 6,050 12.2 -7.2°
Maximum altitude 18:35:27 49° 23° (NNE) 2,835 9.3 -11.3°
Enters shadow 18:44:39 15° 91° (E) 3,575 9.3 -13.5°
Drops below altitude 10° 18:45:52 10° 95° (E) 3,848 - -13.8°
Sets 18:48:32 0° 101° (E) 4,522 - -14.5°
